,,Stat5,,Stat1,,Stat2,,Stat3,,Stat4,,Wind1,,Wind1,
time,status,PA1M_AVG,status,PR1M_SUM,status,RH1M_AVG,status,SR1M_AVG,status,TA1M_AVG,status,W1dAve1m,status,W1sAve1m,
2003-02-18, 00:00:00,VALID,919.513,VALID,0,VALID,95.5573,VALID,-0.0509425,VALID,18.4128,VALID,96,VALID,0.635691,
2003-02-18, 00:01:00,VALID,919.507,VALID,0,VALID,94.8808,VALID,-0.0679233,VALID,18.4319,VALID,96,VALID,0.561233,
2003-02-18, 00:02:00,VALID,919.501,VALID,0,VALID,94.0733,VALID,-0.0679233,VALID,18.4585,VALID,95,VALID,0.684095,
2003-02-18, 00:03:00,VALID,919.475,VALID,0,VALID,93.2379,VALID,-0.0679233,VALID,18.491,VALID,90,VALID,0.543973,
2003-02-18, 00:04:00,VALID,919.463,VALID,0,VALID,92.7229,VALID,-0.0849042,VALID,18.5527,VALID,99,VALID,0.415039,
2003-02-18, 00:05:00,VALID,919.446,VALID,0,VALID,92.9238,VALID,-0.0509425,VALID,18.6097,VALID,105,VALID,0.37315,
2003-02-18, 00:06:00,VALID,919.433,VALID,0,VALID,93.4807,VALID,0.0509425,VALID,18.644,VALID,131,VALID,0.528505,
2003-02-18, 00:07:00,VALID,919.402,VALID,0,VALID,93.627,VALID,0.0169808,VALID,18.6609,VALID,132,VALID,0.758868,
2003-02-18, 00:08:00,VALID,919.409,VALID,0,VALID,93.833,VALID,0.0339617,VALID,18.641,VALID,130,VALID,0.41139,
2003-02-18, 00:09:00,VALID,919.406,VALID,0,VALID,94.1051,VALID,0.0339617,VALID,18.6279,VALID,130,VALID,0.233964,
2003-02-18, 00:10:00,VALID,919.389,VALID,0,VALID,94.2857,VALID,0.0509425,VALID,18.6343,VALID,130,VALID,0.175781,
2003-02-18, 00:11:00,VALID,919.376,VALID,0,VALID,94.1687,VALID,0.0169808,VALID,18.6094,VALID,130,VALID,0.269231,
2003-02-18, 00:12:00,VALID,919.361,VALID,0,VALID,94.128,VALID,0,VALID,18.5831,VALID,111,VALID,0.415296,
2003-02-18, 00:13:00,VALID,919.354,VALID,0,VALID,94.3238,VALID,0.0169808,VALID,18.5406,VALID,101,VALID,0.456473,
2003-02-18, 00:14:00,VALID,919.337,VALID,0,VALID,94.4955,VALID,0.0339617,VALID,18.5217,VALID,101,VALID,0.382196,
2003-02-18, 00:15:00,VALID,919.329,VALID,0,VALID,94.8045,VALID,0.0509425,VALID,18.4698,VALID,101,VALID,0.447917,
2003-02-18, 00:16:00,VALID,919.32,VALID,0,VALID,94.9787,VALID,0.0169808,VALID,18.434,VALID,101,VALID,0.633446,
2003-02-18, 00:17:00,VALID,919.305,VALID,0,VALID,94.807,VALID,0.0169808,VALID,18.3991,VALID,102,VALID,0.866071,
2003-02-18, 00:18:00,VALID,919.291,VALID,0,VALID,94.5133,VALID,0.0679233,VALID,18.3698,VALID,112,VALID,0.630515,
2003-02-18, 00:19:00,VALID,919.267,VALID,0,VALID,94.8223,VALID,0.0509425,VALID,18.3763,VALID,150,VALID,0.476963,
2003-02-18, 00:20:00,VALID,919.251,VALID,0,VALID,94.8681,VALID,0.0339617,VALID,18.3957,VALID,124,VALID,0.60625,
2003-02-18, 00:21:00,VALID,919.227,VALID,0,VALID,94.5273,VALID,0,VALID,18.3897,VALID,115,VALID,0.808203,
2003-02-18, 00:22:00,VALID,919.216,VALID,0,VALID,94.2577,VALID,0,VALID,18.3634,VALID,123,VALID,0.492411,
2003-02-18, 00:23:00,VALID,919.197,VALID,0,VALID,94.4535,VALID,0.0339617,VALID,18.3994,VALID,123,VALID,0.417969,
2003-02-18, 00:24:00,VALID,919.179,VALID,0,VALID,94.4878,VALID,0,VALID,18.4185,VALID,118,VALID,0.29523,
2003-02-18, 00:25:00,VALID,919.149,VALID,0,VALID,94.4065,VALID,0,VALID,18.4381,VALID,112,VALID,0.407072,
2003-02-18, 00:26:00,VALID,919.149,VALID,0,VALID,94.5794,VALID,0,VALID,18.4345,VALID,111,VALID,0.300781,
2003-02-18, 00:27:00,VALID,919.128,VALID,0,VALID,94.7511,VALID,0.0339617,VALID,18.4282,VALID,111,VALID,0.152872,
2003-02-18, 00:28:00,VALID,919.128,VALID,0,VALID,94.8223,VALID,0.0679233,VALID,18.425,VALID,109,VALID,0.202524,
2003-02-18, 00:29:00,VALID,919.115,VALID,0,VALID,94.9393,VALID,0.0169808,VALID,18.3991,VALID,97,VALID,0.447321,
2003-02-18, 00:30:00,VALID,919.111,VALID,0,VALID,94.9749,VALID,0,VALID,18.3827,VALID,68,VALID,0.418285,
2003-02-18, 00:31:00,VALID,919.089,VALID,0,VALID,95.0308,VALID,0.0509425,VALID,18.3666,VALID,70,VALID,0.720312,
2003-02-18, 00:32:00,VALID,919.066,VALID,0,VALID,95.1809,VALID,0.0849042,VALID,18.341,VALID,70,VALID,0.579814,
2003-02-18, 00:33:00,VALID,919.049,VALID,0,VALID,95.3029,VALID,0.0849042,VALID,18.3052,VALID,62,VALID,0.525288,
2003-02-18, 00:34:00,VALID,919.035,VALID,0,VALID,95.4911,VALID,0.0509425,VALID,18.2932,VALID,60,VALID,0.314762,
2003-02-18, 00:35:00,VALID,919.022,VALID,0,VALID,95.6056,VALID,0.0339617,VALID,18.2738,VALID,60,VALID,0.299805,
2003-02-18, 00:36:00,VALID,919.036,VALID,0,VALID,95.6679,VALID,0.0509425,VALID,18.2276,VALID,60,VALID,0.334704,
2003-02-18, 00:37:00,VALID,919.02,VALID,0,VALID,95.6361,VALID,0.0169808,VALID,18.1992,VALID,60,VALID,0.616964,
2003-02-18, 00:38:00,VALID,919.021,VALID,0,VALID,95.6844,VALID,0,VALID,18.163,VALID,61,VALID,0.504492,
2003-02-18, 00:39:00,VALID,919.012,VALID,0,VALID,95.6806,VALID,0,VALID,18.1406,VALID,61,VALID,0.555889,
2003-02-18, 00:40:00,VALID,918.998,VALID,0,VALID,95.6069,VALID,0.0509425,VALID,18.1148,VALID,59,VALID,0.671258,
2003-02-18, 00:41:00,VALID,918.983,VALID,0,VALID,95.6908,VALID,0.0169808,VALID,18.0755,VALID,48,VALID,0.584671,
2003-02-18, 00:42:00,VALID,918.965,VALID,0,VALID,95.6895,VALID,0,VALID,18.0635,VALID,59,VALID,0.566106,
2003-02-18, 00:43:00,VALID,918.949,VALID,0,VALID,95.6844,VALID,0.0509425,VALID,18.0508,VALID,70,VALID,0.59924,
2003-02-18, 00:44:00,VALID,918.923,VALID,0,VALID,95.7073,VALID,0.0169808,VALID,18.0437,VALID,71,VALID,0.633868,
2003-02-18, 00:45:00,VALID,918.903,VALID,0,VALID,95.6908,VALID,0.0339617,VALID,18.0278,VALID,71,VALID,0.578316,
2003-02-18, 00:46:00,VALID,918.885,VALID,0,VALID,95.7238,VALID,0.0169808,VALID,18.0372,VALID,71,VALID,0.378038,
2003-02-18, 00:47:00,VALID,918.84,VALID,0,VALID,95.7404,VALID,0.0339617,VALID,18.0208,VALID,71,VALID,0.39082,
2003-02-18, 00:48:00,VALID,918.831,VALID,0,VALID,95.9159,VALID,0.0849042,VALID,18.0146,VALID,71,VALID,0.322115,
2003-02-18, 00:49:00,VALID,918.828,VALID,0,VALID,96.0456,VALID,0.0509425,VALID,18.0084,VALID,70,VALID,0.319531,
2003-02-18, 00:50:00,VALID,918.816,VALID,0,VALID,96.0405,VALID,0.0169808,VALID,17.9892,VALID,78,VALID,0.335732,
2003-02-18, 00:51:00,VALID,918.805,VALID,0,VALID,96.1002,VALID,0.0169808,VALID,17.9828,VALID,79,VALID,0.167558,
2003-02-18, 00:52:00,VALID,918.796,VALID,0,VALID,96.2261,VALID,0.0509425,VALID,17.9927,VALID,79,VALID,0.172931,
2003-02-18, 00:53:00,VALID,918.786,VALID,0,VALID,96.3126,VALID,0.0509425,VALID,17.9858,VALID,79,VALID,0.316797,
2003-02-18, 00:54:00,VALID,918.781,VALID,0,VALID,96.422,VALID,0.0339617,VALID,17.9825,VALID,80,VALID,0.553602,
2003-02-18, 00:55:00,VALID,918.769,VALID,0,VALID,96.586,VALID,0.0169808,VALID,17.9924,VALID,88,VALID,0.743032,
2003-02-18, 00:56:00,VALID,918.751,VALID,0,VALID,96.5885,VALID,0.0169808,VALID,18.0153,VALID,108,VALID,0.770765,
2003-02-18, 00:57:00,VALID,918.749,VALID,0,VALID,96.4754,VALID,0.0339617,VALID,18.0471,VALID,116,VALID,0.617188,
2003-02-18, 00:58:00,VALID,918.731,VALID,0,VALID,96.4232,VALID,0.0169808,VALID,18.1023,VALID,123,VALID,0.419819,
2003-02-18, 00:59:00,VALID,918.73,VALID,0,VALID,96.3329,VALID,0.0339617,VALID,18.1376,VALID,133,VALID,0.811328,
2003-02-18, 01:00:00,VALID,918.706,VALID,0,VALID,96.2477,VALID,0.0339617,VALID,18.1699,VALID,121,VALID,0.716077,
2003-02-18, 01:01:00,VALID,918.689,VALID,0,VALID,96.1041,VALID,0.0509425,VALID,18.1956,VALID,118,VALID,0.975329,
2003-02-18, 01:02:00,VALID,918.689,VALID,0,VALID,95.7289,VALID,0,VALID,18.2348,VALID,113,VALID,1.01262,
2003-02-18, 01:03:00,VALID,918.677,VALID,0,VALID,95.4543,VALID,0.0339617,VALID,18.2639,VALID,115,VALID,0.753806,
2003-02-18, 01:04:00,VALID,918.663,VALID,0,VALID,95.364,VALID,0.0169808,VALID,18.3158,VALID,118,VALID,0.630757,
2003-02-18, 01:05:00,VALID,918.653,VALID,0,VALID,95.2305,VALID,-0.0339617,VALID,18.3451,VALID,125,VALID,0.847451,
2003-02-18, 01:06:00,VALID,918.625,VALID,0,VALID,95.0232,VALID,-0.0679233,VALID,18.3687,VALID,114,VALID,0.923437,
2003-02-18, 01:07:00,VALID,918.622,VALID,0,VALID,94.8668,VALID,-0.0679233,VALID,18.4045,VALID,109,VALID,0.795982,
2003-02-18, 01:08:00,VALID,918.611,VALID,0,VALID,94.7307,VALID,-0.101885,VALID,18.4204,VALID,119,VALID,0.677365,
2003-02-18, 01:09:00,VALID,918.617,VALID,0,VALID,94.615,VALID,-0.101885,VALID,18.4365,VALID,123,VALID,0.560238,
2003-02-18, 01:10:00,VALID,918.61,VALID,0,VALID,94.54,VALID,-0.101885,VALID,18.4522,VALID,124,VALID,0.533854,
2003-02-18, 01:11:00,VALID,918.609,VALID,0,VALID,94.2958,VALID,-0.101885,VALID,18.4592,VALID,107,VALID,1.00369,
2003-02-18, 01:12:00,VALID,918.603,VALID,0,VALID,93.9894,VALID,-0.0849042,VALID,18.482,VALID,82,VALID,0.883224,
2003-02-18, 01:13:00,VALID,918.587,VALID,0,VALID,93.777,VALID,-0.0679233,VALID,18.4947,VALID,90,VALID,0.89933,
2003-02-18, 01:14:00,VALID,918.572,VALID,0,VALID,93.8266,VALID,-0.101885,VALID,18.5143,VALID,87,VALID,0.977564,
2003-02-18, 01:15:00,VALID,918.553,VALID,0,VALID,93.9907,VALID,-0.0849042,VALID,18.5171,VALID,82,VALID,0.977648,
2003-02-18, 01:16:00,VALID,918.532,VALID,0,VALID,93.8597,VALID,-0.0849042,VALID,18.5139,VALID,91,VALID,0.908995,
2003-02-18, 01:17:00,VALID,918.492,VALID,0,VALID,93.2836,VALID,-0.101885,VALID,18.4979,VALID,94,VALID,1.13713,
2003-02-18, 01:18:00,VALID,918.492,VALID,0,VALID,93.1221,VALID,-0.0679233,VALID,18.4848,VALID,96,VALID,1.20066,
2003-02-18, 01:19:00,VALID,918.456,VALID,0,VALID,93.0967,VALID,-0.101885,VALID,18.5111,VALID,92,VALID,1.17226,
2003-02-18, 01:20:00,VALID,918.419,VALID,0,VALID,92.9022,VALID,-0.0679233,VALID,18.527,VALID,92,VALID,1.22877,
2003-02-18, 01:21:00,VALID,918.391,VALID,0,VALID,92.8933,VALID,-0.0169808,VALID,18.5231,VALID,85,VALID,1.11959,
2003-02-18, 01:22:00,VALID,918.365,VALID,0,VALID,92.8271,VALID,0,VALID,18.5166,VALID,86,VALID,1.13788,
2003-02-18, 01:23:00,VALID,918.347,VALID,0,VALID,92.906,VALID,-0.0679233,VALID,18.5134,VALID,89,VALID,0.978711,
2003-02-18, 01:24:00,VALID,918.35,VALID,0,VALID,92.8411,VALID,-0.0339617,VALID,18.4972,VALID,95,VALID,0.966452,
2003-02-18, 01:25:00,VALID,918.331,VALID,0,VALID,92.9111,VALID,-0.0679233,VALID,18.488,VALID,94,VALID,0.90293,
2003-02-18, 01:26:00,VALID,918.326,VALID,0,VALID,92.9657,VALID,-0.101885,VALID,18.488,VALID,89,VALID,0.923678,
2003-02-18, 01:27:00,VALID,918.326,VALID,0,VALID,92.8704,VALID,0.0169808,VALID,18.4749,VALID,95,VALID,0.842516,
2003-02-18, 01:28:00,VALID,918.316,VALID,0,VALID,93.1043,VALID,-0.0679233,VALID,18.4682,VALID,89,VALID,0.575041,
2003-02-18, 01:29:00,VALID,918.315,VALID,0,VALID,93.4477,VALID,-0.0849042,VALID,18.4816,VALID,102,VALID,0.415234,
2003-02-18, 01:30:00,VALID,918.318,VALID,0,VALID,93.8737,VALID,-0.0339617,VALID,18.4781,VALID,106,VALID,0.442578,
2003-02-18, 01:31:00,VALID,918.307,VALID,0,VALID,94.2284,VALID,-0.0339617,VALID,18.455,VALID,109,VALID,0.320313,
2003-02-18, 01:32:00,VALID,918.293,VALID,0,VALID,94.4192,VALID,-0.0509425,VALID,18.4522,VALID,114,VALID,0.663651,
2003-02-18, 01:33:00,VALID,918.28,VALID,0,VALID,94.4408,VALID,-0.0339617,VALID,18.4328,VALID,109,VALID,0.500801,
2003-02-18, 01:34:00,VALID,918.266,VALID,0,VALID,94.6341,VALID,-0.0339617,VALID,18.4165,VALID,108,VALID,0.334936,
2003-02-18, 01:35:00,VALID,918.277,VALID,0,VALID,94.6455,VALID,-0.0339617,VALID,18.4038,VALID,108,VALID,0.186867,
2003-02-18, 01:36:00,VALID,918.26,VALID,0,VALID,94.5692,VALID,-0.0509425,VALID,18.3744,VALID,108,VALID,0.538061,
2003-02-18, 01:37:00,VALID,918.255,VALID,0,VALID,94.5502,VALID,-0.0169808,VALID,18.362,VALID,112,VALID,0.62283,
2003-02-18, 01:38:00,VALID,918.248,VALID,0,VALID,94.5769,VALID,-0.0849042,VALID,18.3521,VALID,120,VALID,0.461372,
2003-02-18, 01:39:00,VALID,918.23,VALID,0,VALID,94.6582,VALID,-0.0169808,VALID,18.365,VALID,113,VALID,0.342773,
2003-02-18, 01:40:00,VALID,918.218,VALID,0,VALID,94.7701,VALID,-0.0169808,VALID,18.3779,VALID,113,VALID,0.218328,
2003-02-18, 01:41:00,VALID,918.208,VALID,0,VALID,94.8134,VALID,-0.0679233,VALID,18.3717,VALID,110,VALID,0.450521,
2003-02-18, 01:42:00,VALID,918.186,VALID,0,VALID,94.7473,VALID,-0.0169808,VALID,18.3551,VALID,95,VALID,0.546464,
2003-02-18, 01:43:00,VALID,918.181,VALID,0,VALID,94.7434,VALID,-0.0509425,VALID,18.3553,VALID,92,VALID,0.448361,
2003-02-18, 01:44:00,VALID,918.175,VALID,0,VALID,94.7765,VALID,-0.0339617,VALID,18.3493,VALID,77,VALID,0.318109,
2003-02-18, 01:45:00,VALID,918.169,VALID,0,VALID,94.8477,VALID,-0.0339617,VALID,18.2907,VALID,58,VALID,0.407728,
2003-02-18, 01:46:00,VALID,918.158,VALID,0,VALID,95.0207,VALID,-0.0509425,VALID,18.2516,VALID,31,VALID,0.551367,
2003-02-18, 01:47:00,VALID,918.148,VALID,0,VALID,95.1198,VALID,-0.0679233,VALID,18.2198,VALID,25,VALID,0.503205,
2003-02-18, 01:48:00,VALID,918.132,VALID,0,VALID,95.1732,VALID,-0.0509425,VALID,18.1552,VALID,25,VALID,0.41509,
2003-02-18, 01:49:00,VALID,918.126,VALID,0,VALID,95.1923,VALID,-0.0679233,VALID,18.094,VALID,25,VALID,0.195101,
2003-02-18, 01:50:00,VALID,918.115,VALID,0,VALID,95.3309,VALID,0.0169808,VALID,18.0384,VALID,25,VALID,0.166266,
2003-02-18, 01:51:00,VALID,918.097,VALID,0,VALID,95.4937,VALID,0.0339617,VALID,17.9952,VALID,25,VALID,0.33364,
2003-02-18, 01:52:00,VALID,918.095,VALID,0,VALID,95.6132,VALID,0.0509425,VALID,17.992,VALID,25,VALID,0.461939,
2003-02-18, 01:53:00,VALID,918.084,VALID,0,VALID,95.659,VALID,0.0849042,VALID,17.9722,VALID,25,VALID,0.562294,
2003-02-18, 01:54:00,VALID,918.051,VALID,0,VALID,95.7773,VALID,0.0509425,VALID,17.9892,VALID,42,VALID,0.593316,
2003-02-18, 01:55:00,VALID,918.048,VALID,0,VALID,95.8637,VALID,0.0509425,VALID,17.9918,VALID,49,VALID,0.595861,
2003-02-18, 01:56:00,VALID,918.029,VALID,0,VALID,95.7645,VALID,0.0679233,VALID,18.0372,VALID,49,VALID,0.560352,
2003-02-18, 01:57:00,VALID,918.038,VALID,0,VALID,95.5725,VALID,0.0679233,VALID,18.0571,VALID,49,VALID,0.314556,
2003-02-18, 01:58:00,VALID,918.04,VALID,0,VALID,95.5357,VALID,0.0679233,VALID,18.0538,VALID,49,VALID,0,
2003-02-18, 01:59:00,VALID,918.047,VALID,0,VALID,95.4924,VALID,0.0509425,VALID,18.0504,VALID,49,VALID,0,
2003-02-18, 02:00:00,VALID,918.054,VALID,0,VALID,95.4784,VALID,0.0339617,VALID,18.0243,VALID,49,VALID,0,
2003-02-18, 02:01:00,VALID,918.044,VALID,0,VALID,95.4543,VALID,0.0679233,VALID,17.9955,VALID,49,VALID,0.252673,
2003-02-18, 02:02:00,VALID,918.016,VALID,0,VALID,95.6285,VALID,0.0849042,VALID,17.9731,VALID,49,VALID,0.321791,
2003-02-18, 02:03:00,VALID,918.012,VALID,0,VALID,95.7315,VALID,0.0339617,VALID,17.9474,VALID,49,VALID,0.0548878,
2003-02-18, 02:04:00,VALID,918.015,VALID,0,VALID,95.8192,VALID,0.0509425,VALID,17.9209,VALID,49,VALID,0,
2003-02-18, 02:05:00,VALID,918.019,VALID,0,VALID,95.9464,VALID,0.0509425,VALID,17.8946,VALID,49,VALID,0.0185811,
2003-02-18, 02:06:00,VALID,918.012,VALID,0,VALID,96.099,VALID,0.101885,VALID,17.9179,VALID,49,VALID,0,
2003-02-18, 02:07:00,VALID,917.98,VALID,0,VALID,96.0507,VALID,0.0509425,VALID,17.9179,VALID,49,VALID,0.329427,
2003-02-18, 02:08:00,VALID,917.955,VALID,0,VALID,96.0507,VALID,0.0509425,VALID,17.8953,VALID,49,VALID,0.355859,
2003-02-18, 02:09:00,VALID,917.948,VALID,0,VALID,96.1295,VALID,0.0849042,VALID,17.8755,VALID,49,VALID,0.015024,
2003-02-18, 02:10:00,VALID,917.963,VALID,0,VALID,96.1041,VALID,0.101885,VALID,17.8567,VALID,49,VALID,0,
2003-02-18, 02:11:00,VALID,917.982,VALID,0,VALID,96.2109,VALID,0.0849042,VALID,17.8272,VALID,49,VALID,0,
2003-02-18, 02:12:00,VALID,917.971,VALID,0,VALID,96.2923,VALID,0.0509425,VALID,17.8244,VALID,49,VALID,0,
2003-02-18, 02:13:00,VALID,917.957,VALID,0,VALID,96.3584,VALID,0.0849042,VALID,17.8143,VALID,49,VALID,0.291385,
2003-02-18, 02:14:00,VALID,917.943,VALID,0,VALID,96.4601,VALID,0.0679233,VALID,17.8078,VALID,57,VALID,0.419141,
2003-02-18, 02:15:00,VALID,917.925,VALID,0,VALID,96.6229,VALID,0.0679233,VALID,17.8111,VALID,79,VALID,0.379774,
2003-02-18, 02:16:00,VALID,917.921,VALID,0,VALID,96.6458,VALID,0.0849042,VALID,17.7949,VALID,79,VALID,0.0409628,
2003-02-18, 02:17:00,VALID,917.931,VALID,0,VALID,96.4245,VALID,-0.0339617,VALID,17.7967,VALID,79,VALID,0.36102,
2003-02-18, 02:18:00,VALID,917.912,VALID,0,VALID,96.6356,VALID,-0.0339617,VALID,17.7769,VALID,79,VALID,0.00686553,
2003-02-18, 02:19:00,VALID,917.902,VALID,0,VALID,96.4703,VALID,0,VALID,17.754,VALID,72,VALID,0.221423,
2003-02-18, 02:20:00,VALID,917.879,VALID,0,VALID,96.3291,VALID,-0.0509425,VALID,17.7092,VALID,35,VALID,0.470313,
2003-02-18, 02:21:00,VALID,917.875,VALID,0,VALID,96.3101,VALID,-0.0339617,VALID,17.6705,VALID,32,VALID,0.232319,
2003-02-18, 02:22:00,VALID,917.862,VALID,0,VALID,96.3978,VALID,-0.0169808,VALID,17.6349,VALID,32,VALID,0,
2003-02-18, 02:23:00,VALID,917.86,VALID,0,VALID,96.5987,VALID,-0.0339617,VALID,17.6254,VALID,32,VALID,0.00120192,
2003-02-18, 02:24:00,VALID,917.855,VALID,0,VALID,96.8073,VALID,-0.0169808,VALID,17.6185,VALID,32,VALID,0,
2003-02-18, 02:25:00,VALID,917.838,VALID,0,VALID,96.9471,VALID,-0.0339617,VALID,17.6351,VALID,32,VALID,0.0750411,
2003-02-18, 02:26:00,VALID,917.821,VALID,0,VALID,96.9281,VALID,-0.0339617,VALID,17.6384,VALID,34,VALID,0.454153,
2003-02-18, 02:27:00,VALID,917.78,VALID,0,VALID,96.7602,VALID,-0.0339617,VALID,17.6155,VALID,47,VALID,0.648633,
2003-02-18, 02:28:00,VALID,917.768,VALID,0,VALID,96.9306,VALID,-0.0509425,VALID,17.5964,VALID,50,VALID,0.612277,
2003-02-18, 02:29:00,VALID,917.77,VALID,0,VALID,97.1353,VALID,-0.0169808,VALID,17.6153,VALID,56,VALID,0.455025,
2003-02-18, 02:30:00,VALID,917.765,VALID,0,VALID,97.059,VALID,-0.0169808,VALID,17.6054,VALID,57,VALID,0.20148,
2003-02-18, 02:31:00,VALID,917.764,VALID,0,VALID,97.0717,VALID,-0.0339617,VALID,17.5996,VALID,59,VALID,0.0540365,
2003-02-18, 02:32:00,VALID,917.746,VALID,0,VALID,97.1875,VALID,0,VALID,17.5964,VALID,65,VALID,0.00434028,
2003-02-18, 02:33:00,VALID,917.726,VALID,0,VALID,97.4075,VALID,-0.0509425,VALID,17.619,VALID,65,VALID,0.00102796,
2003-02-18, 02:34:00,VALID,917.713,VALID,0,VALID,97.1328,VALID,-0.0169808,VALID,17.6356,VALID,65,VALID,0,
2003-02-18, 02:35:00,VALID,917.703,VALID,0,VALID,97.0946,VALID,-0.0509425,VALID,17.6127,VALID,65,VALID,0,
2003-02-18, 02:36:00,VALID,917.698,VALID,0,VALID,97.0133,VALID,-0.0169808,VALID,17.5966,VALID,65,VALID,0,
2003-02-18, 02:37:00,VALID,917.683,VALID,0,VALID,97.0044,VALID,-0.0339617,VALID,17.5572,VALID,65,VALID,0,
2003-02-18, 02:38:00,VALID,917.684,VALID,0,VALID,97.1951,VALID,-0.0339617,VALID,17.577,VALID,65,VALID,0,
2003-02-18, 02:39:00,VALID,917.669,VALID,0,VALID,97.2905,VALID,-0.0169808,VALID,17.5897,VALID,65,VALID,0.0530428,
2003-02-18, 02:40:00,VALID,917.669,VALID,0,VALID,96.9713,VALID,-0.0339617,VALID,17.5746,VALID,65,VALID,0.348895,
2003-02-18, 02:41:00,VALID,917.662,VALID,0,VALID,96.764,VALID,-0.0169808,VALID,17.5119,VALID,65,VALID,0.42508,
2003-02-18, 02:42:00,VALID,917.658,VALID,0,VALID,96.8657,VALID,-0.0339617,VALID,17.4833,VALID,65,VALID,0.402845,
2003-02-18, 02:43:00,VALID,917.661,VALID,0,VALID,97.1035,VALID,-0.0169808,VALID,17.4997,VALID,65,VALID,0.286318,
2003-02-18, 02:44:00,VALID,917.649,VALID,0,VALID,97.0234,VALID,-0.0849042,VALID,17.5091,VALID,65,VALID,0.268555,
2003-02-18, 02:45:00,VALID,917.657,VALID,0,VALID,96.8925,VALID,-0.0339617,VALID,17.5093,VALID,64,VALID,0.401425,
2003-02-18, 02:46:00,VALID,917.636,VALID,0,VALID,96.6966,VALID,-0.0169808,VALID,17.4934,VALID,62,VALID,0.588672,
2003-02-18, 02:47:00,VALID,917.628,VALID,0,VALID,96.6394,VALID,-0.0679233,VALID,17.4579,VALID,62,VALID,0.764423,
2003-02-18, 02:48:00,VALID,917.616,VALID,0,VALID,96.8149,VALID,0,VALID,17.4219,VALID,62,VALID,0.820518,
2003-02-18, 02:49:00,VALID,917.613,VALID,0,VALID,96.53,VALID,-0.0169808,VALID,17.3799,VALID,61,VALID,0.635485,
2003-02-18, 02:50:00,VALID,917.623,VALID,0,VALID,96.4932,VALID,-0.0169808,VALID,17.3254,VALID,61,VALID,0.146875,
2003-02-18, 02:51:00,VALID,917.615,VALID,0,VALID,96.5542,VALID,0,VALID,17.2862,VALID,61,VALID,0,
2003-02-18, 02:52:00,VALID,917.625,VALID,0,VALID,96.633,VALID,-0.0339617,VALID,17.2345,VALID,61,VALID,0,
2003-02-18, 02:53:00,VALID,917.617,VALID,0,VALID,97.1519,VALID,-0.0169808,VALID,17.238,VALID,61,VALID,0,
2003-02-18, 02:54:00,VALID,917.609,VALID,0,VALID,97.5461,VALID,-0.0849042,VALID,17.264,VALID,91,VALID,0.414864,
2003-02-18, 02:55:00,VALID,917.591,VALID,0,VALID,97.6961,VALID,-0.0169808,VALID,17.28,VALID,112,VALID,0.435897,
2003-02-18, 02:56:00,VALID,917.596,VALID,0,VALID,97.864,VALID,-0.0509425,VALID,17.3024,VALID,123,VALID,0.497044,
2003-02-18, 02:57:00,VALID,917.596,VALID,0,VALID,97.9733,VALID,-0.0679233,VALID,17.3349,VALID,125,VALID,0.271835,
2003-02-18, 02:58:00,VALID,917.598,VALID,0,VALID,97.9352,VALID,-0.0339617,VALID,17.3385,VALID,125,VALID,0.155816,
2003-02-18, 02:59:00,VALID,917.603,VALID,0,VALID,97.9441,VALID,-0.0679233,VALID,17.3185,VALID,125,VALID,0,
2003-02-18, 03:00:00,VALID,917.612,VALID,0,VALID,98.0305,VALID,-0.0169808,VALID,17.3289,VALID,125,VALID,0.169727,
2003-02-18, 03:01:00,VALID,917.61,VALID,0,VALID,97.9225,VALID,-0.0339617,VALID,17.3127,VALID,125,VALID,0.298353,
2003-02-18, 03:02:00,VALID,917.598,VALID,0,VALID,97.719,VALID,-0.0679233,VALID,17.2804,VALID,125,VALID,0.345553,
2003-02-18, 03:03:00,VALID,917.593,VALID,0,VALID,97.5995,VALID,-0.0169808,VALID,17.2156,VALID,124,VALID,0.299137,
2003-02-18, 03:04:00,VALID,917.576,VALID,0,VALID,97.6452,VALID,-0.0169808,VALID,17.1865,VALID,99,VALID,0.480755,
2003-02-18, 03:05:00,VALID,917.563,VALID,0,VALID,97.967,VALID,-0.0849042,VALID,17.2128,VALID,65,VALID,0.526242,
2003-02-18, 03:06:00,VALID,917.559,VALID,0,VALID,97.9644,VALID,-0.0679233,VALID,17.2095,VALID,65,VALID,0.381334,
2003-02-18, 03:07:00,VALID,917.556,VALID,0,VALID,98.1348,VALID,-0.0679233,VALID,17.2289,VALID,65,VALID,0.289648,
2003-02-18, 03:08:00,VALID,917.56,VALID,0,VALID,98.1552,VALID,-0.0509425,VALID,17.2614,VALID,65,VALID,0.00921474,
2003-02-18, 03:09:00,VALID,917.56,VALID,0,VALID,98.1819,VALID,-0.0169808,VALID,17.2606,VALID,65,VALID,0,
2003-02-18, 03:10:00,VALID,917.557,VALID,0,VALID,98.2124,VALID,-0.0679233,VALID,17.2703,VALID,65,VALID,0,
2003-02-18, 03:11:00,VALID,917.549,VALID,0,VALID,98.1806,VALID,-0.0339617,VALID,17.2935,VALID,65,VALID,0,
2003-02-18, 03:12:00,VALID,917.544,VALID,0,VALID,98.1946,VALID,-0.0679233,VALID,17.3004,VALID,65,VALID,0,
2003-02-18, 03:13:00,VALID,917.527,VALID,0,VALID,98.07,VALID,-0.0339617,VALID,17.2903,VALID,65,VALID,0.0793269,
2003-02-18, 03:14:00,VALID,917.506,VALID,0,VALID,98.1017,VALID,-0.0509425,VALID,17.2673,VALID,65,VALID,0.338405,
2003-02-18, 03:15:00,VALID,917.499,VALID,0,VALID,98.0165,VALID,-0.0679233,VALID,17.2649,VALID,65,VALID,0.299045,
2003-02-18, 03:16:00,VALID,917.485,VALID,0,VALID,98.0738,VALID,-0.0509425,VALID,17.2453,VALID,65,VALID,0.223818,
2003-02-18, 03:17:00,VALID,917.477,VALID,0,VALID,98.2353,VALID,-0.0509425,VALID,17.2513,VALID,65,VALID,0.163867,
2003-02-18, 03:18:00,VALID,917.456,VALID,0,VALID,98.2658,VALID,-0.0339617,VALID,17.2576,VALID,65,VALID,0.0553043,
2003-02-18, 03:19:00,VALID,917.45,VALID,0,VALID,98.1234,VALID,-0.0339617,VALID,17.2513,VALID,65,VALID,0,
2003-02-18, 03:20:00,VALID,917.456,VALID,0,VALID,98.1768,VALID,-0.0339617,VALID,17.2287,VALID,65,VALID,0.0498798,
2003-02-18, 03:21:00,VALID,917.445,VALID,0,VALID,98.2404,VALID,-0.0509425,VALID,17.2289,VALID,65,VALID,0.165465,
2003-02-18, 03:22:00,VALID,917.452,VALID,0,VALID,98.1539,VALID,-0.0509425,VALID,17.2128,VALID,65,VALID,0,
2003-02-18, 03:23:00,VALID,917.429,VALID,0,VALID,98.2429,VALID,-0.0679233,VALID,17.21,VALID,65,VALID,0,
2003-02-18, 03:24:00,VALID,917.415,VALID,0,VALID,98.3586,VALID,-0.0509425,VALID,17.2164,VALID,65,VALID,0.158454,
2003-02-18, 03:25:00,VALID,917.393,VALID,0,VALID,98.5061,VALID,-0.0849042,VALID,17.2462,VALID,65,VALID,0.122255,
2003-02-18, 03:26:00,VALID,917.373,VALID,0,VALID,98.4413,VALID,-0.0509425,VALID,17.255,VALID,65,VALID,0.0840372,
2003-02-18, 03:27:00,VALID,917.356,VALID,0,VALID,98.2887,VALID,-0.0679233,VALID,17.2483,VALID,65,VALID,0.0836509,
2003-02-18, 03:28:00,VALID,917.341,VALID,0,VALID,98.0916,VALID,-0.0509425,VALID,17.2291,VALID,65,VALID,0.0212674,
2003-02-18, 03:29:00,VALID,917.328,VALID,0,VALID,97.9962,VALID,-0.0849042,VALID,17.1938,VALID,65,VALID,0.00527344,
2003-02-18, 03:30:00,VALID,917.313,VALID,0,VALID,97.9314,VALID,-0.0679233,VALID,17.1578,VALID,65,VALID,0,
2003-02-18, 03:31:00,VALID,917.301,VALID,0,VALID,97.8589,VALID,-0.0509425,VALID,17.1219,VALID,65,VALID,0,
2003-02-18, 03:32:00,VALID,917.297,VALID,0,VALID,97.7406,VALID,-0.0339617,VALID,17.0999,VALID,65,VALID,0.124383,
2003-02-18, 03:33:00,VALID,917.285,VALID,0,VALID,97.7775,VALID,-0.0849042,VALID,17.0609,VALID,65,VALID,0.443668,